Location: Hylvaty SDH
(49.9612°N, 16.4057°E)
Time: 21:21:34
(UTC+02:00)

Vanguard 1 - Visible Passes

Search period start: 25 September 2020 00:00
Search period end: 05 October 2020 00:00
Orbit: 650 x 3832 km, 34.2° (Epoch: 24 September)

Date Brightness Start Highest point End Pass type
(mag) Time Alt. Az. Time Alt. Az. Time Alt. Az.
01 Oct 12.2 21:15:24 10° SSW 21:16:43 12° S 21:16:43 12° S visible
02 Oct 12.2 21:35:10 10° SSW 21:36:39 13° SSW 21:36:39 13° SSW visible
03 Oct 12.2 19:36:18 10° S 19:40:07 13° SSE 19:43:15 10° SE visible
03 Oct 12.3 21:55:22 10° SW 21:56:33 13° SSW 21:56:33 13° SSW visible
04 Oct 12.0 19:55:16 10° SSW 20:00:48 16° SSE 20:03:42 13° SE visible
04 Oct 12.5 22:15:51 10° SW 22:16:25 11° SW 22:16:25 11° SW visible
